This is the latest recevied weather packets stored in our database for station/object KC4KQE. If no packets are shown the sender has not sent any weather packets the latest 10 day(s).
| Time | Temp. | Humidity | Pressure | Rain* | Wind** | Luminosity | Snow |
|---|---|---|---|---|---|---|---|
| 1777932556 | 25° C | 34% | 1012 hPa | 0 mm | - | 255 W/m² | - |
| 1777932256 | 25° C | 34% | 1012.1 hPa | 0 mm | - | 260 W/m² | - |
| 1777931956 | 25° C | 34% | 1012.5 hPa | 0 mm | - | 258 W/m² | - |
| 1777931656 | 25° C | 34% | 1012.6 hPa | 0 mm | - | 237 W/m² | - |
| 1777931357 | 25° C | 34% | 1012.7 hPa | 0 mm | - | 239 W/m² | - |
| 1777931056 | 25° C | 34% | 1012.9 hPa | 0 mm | - | 287 W/m² | - |
| 1777930756 | 25° C | 33% | 1013 hPa | 0 mm | - | 244 W/m² | - |
| 1777930456 | 25.56° C | 33% | 1013 hPa | 0 mm | - | 230 W/m² | - |
| 1777930156 | 25.56° C | 33% | 1013 hPa | 0 mm | - | 246 W/m² | - |
| 1777929856 | 25.56° C | 33% | 1012.9 hPa | 0 mm | - | 230 W/m² | - |
| 1777929556 | 25.56° C | 33% | 1012.9 hPa | 0 mm | - | 290 W/m² | - |
| 1777929256 | 25.56° C | 33% | 1012.9 hPa | 0 mm | - | 281 W/m² | - |
| 1777928956 | 25.56° C | 33% | 1012.8 hPa | 0 mm | - | 320 W/m² | - |
| 1777928657 | 26.11° C | 33% | 1012.7 hPa | 0 mm | - | 325 W/m² | - |
| 1777928356 | 25.56° C | 33% | 1012.8 hPa | 0 mm | - | 367 W/m² | - |
| 1777928056 | 26.11° C | 32% | 1012.7 hPa | 0 mm | - | 403 W/m² | - |
| 1777927756 | 26.11° C | 32% | 1012.5 hPa | 0 mm | - | 436 W/m² | - |
| 1777927456 | 26.11° C | 32% | 1012.7 hPa | 0 mm | - | 589 W/m² | - |
| 1777927156 | 26.11° C | 32% | 1012.7 hPa | 0 mm | - | 517 W/m² | - |
| 1777926856 | 26.11° C | 32% | 1012.7 hPa | 0 mm | - | 570 W/m² | - |
| 1777926556 | 25.56° C | 33% | 1012.8 hPa | 0 mm | - | 541 W/m² | - |
| 1777926257 | 25.56° C | 33% | 1012.7 hPa | 0 mm | - | 434 W/m² | - |
| 1777925957 | 25.56° C | 32% | 1012.6 hPa | 0 mm | - | 373 W/m² | - |
| 1777925656 | 25° C | 33% | 1012.7 hPa | 0 mm | - | 364 W/m² | - |
| 1777925356 | 25.56° C | 32% | 1012.8 hPa | 0 mm | - | 357 W/m² | - |
* Rain latest hour (hover to see other rain measurements)
** Current wind speed in m/s (hover to see current wind gust speed)